Location: ActonStarParty
(42.4766°N, 71.4538°W)
Time: 04:48:57
(UTC-04:00)

Cosmos 2098 Rocket - Pass Details

Date: 19 April 2018
Orbit: 367 x 1202 km, 82.9° (Epoch: 23 May)

Event Time Altitude Azimuth Distance (km) Brightness Sun altitude
Exits shadow 21:30:33 40° 162° (SSE) 1,006 3.7 -20.1°
Maximum altitude 21:32:07 66° 96° (E) 706 3.0 -20.4°
Drops below altitude 10° 21:36:07 10° 14° (NNE) 1,833 5.8 -20.9°
Sets 21:38:02 0° 11° (NNE) 2,625 6.7 -21.2°
